Location: Jaite
(41.2884°N, 81.5737°W)
Time: 21:05:39
(UTC+00:00)

Cosmos 1606 Rocket - Pass Details

Date: 18 January 2020
Orbit: 602 x 633 km, 82.5° (Epoch: 25 February)

Event Time Altitude Azimuth Distance (km) Brightness Sun altitude
Rises 11:08:02 0° 178° (S) 2,910 7.2 -18.6°
Reaches altitude 10° 11:10:17 10° 175° (S) 2,006 6.4 -18.2°
Maximum altitude 11:14:40 64° 95° (E) 702 4.0 -17.4°
Drops below altitude 10° 11:19:05 10° 14° (NNE) 2,008 6.2 -16.6°
Sets 11:21:19 0° 12° (NNE) 2,915 7.0 -16.2°
